• In Russia
  • List of Countries
  • For 7 days
  • Water Temperature
  • Satellite Maps
  • Weather Map
  • Weather Widgets
  • user-avatar
    Login

    Hourly Weather Igls

    Today, 22 September, Saturday

    Time Temperature Precipitation Wind Pressure Humidity
    00:00 +15°C° 1.2 mm 2 mps 687 mmHg 97%
    01:00 +15°C° 1.2 mm 2 mps 687 mmHg 97%
    02:00 +14°C° 0.8 mm 2 mps 687 mmHg 97%
    03:00 +13°C° 0.8 mm 2 mps 687 mmHg 97%
    04:00 +12°C° 0.8 mm 2 mps 687 mmHg 97%
    05:00 +12°C° 0.2 mm 2 mps 687 mmHg 96%
    06:00 +12°C° 0.2 mm 2 mps 687 mmHg 96%
    07:00 +11°C° 0.2 mm 1 mps 687 mmHg 95%
    08:00 +12°C° 0 mm 1 mps 688 mmHg 90%
    09:00 +14°C° 0 mm 1 mps 688 mmHg 85%
    10:00 +15°C° 0 mm 1 mps 688 mmHg 80%
    11:00 +16°C° 0 mm 1 mps 688 mmHg 74%
    12:00 +19°C° 0 mm 1 mps 688 mmHg 68%
    13:00 +20°C° 0 mm 1 mps 688 mmHg 61%
    14:00 +20°C° 0 mm 1 mps 688 mmHg 63%
    15:00 +19°C° 0 mm 1 mps 688 mmHg 65%
    16:00 +19°C° 0 mm 1 mps 688 mmHg 67%
    17:00 +18°C° 0.2 mm 1 mps 688 mmHg 74%
    18:00 +16°C° 0.2 mm 1 mps 688 mmHg 81%
    19:00 +15°C° 0.2 mm 1 mps 688 mmHg 87%
    20:00 +15°C° 0.1 mm 1 mps 688 mmHg 87%
    21:00 +15°C° 0.1 mm 1 mps 688 mmHg 88%
    22:00 +14°C° 0.1 mm 1 mps 688 mmHg 88%
    23:00 +15°C° 0.2 mm 1 mps 688 mmHg 88%

    Tomorrow, 23 September, Sunday

    Time Temperature Precipitation Wind Pressure Humidity
    00:00 +15°C° 0.2 mm 1 mps 688 mmHg 88%
    01:00 +15°C° 0.2 mm 1 mps 688 mmHg 88%
    02:00 +15°C° 0.1 mm 1 mps 688 mmHg 87%
    03:00 +16°C° 0.1 mm 1 mps 688 mmHg 87%
    04:00 +16°C° 0.1 mm 1 mps 687 mmHg 87%
    05:00 +16°C° 0 mm 2 mps 687 mmHg 87%
    06:00 +16°C° 0 mm 2 mps 687 mmHg 87%
    07:00 +16°C° 0 mm 2 mps 687 mmHg 87%
    08:00 +18°C° 0 mm 2 mps 687 mmHg 79%
    09:00 +21°C° 0 mm 2 mps 688 mmHg 70%
    10:00 +24°C° 0 mm 2 mps 688 mmHg 61%
    11:00 +25°C° 0 mm 2 mps 688 mmHg 57%
    12:00 +26°C° 0 mm 2 mps 688 mmHg 53%
    13:00 +27°C° 0 mm 2 mps 687 mmHg 49%
    14:00 +27°C° 0.2 mm 2 mps 687 mmHg 53%
    15:00 +26°C° 0.2 mm 2 mps 686 mmHg 56%
    16:00 +26°C° 0.2 mm 2 mps 686 mmHg 60%
    17:00 +24°C° 0.7 mm 2 mps 685 mmHg 70%
    18:00 +20°C° 0.7 mm 2 mps 684 mmHg 80%
    19:00 +18°C° 0.7 mm 2 mps 683 mmHg 91%
    20:00 +18°C° 0.6 mm 2 mps 683 mmHg 91%
    21:00 +18°C° 0.6 mm 3 mps 683 mmHg 92%
    22:00 +18°C° 0.6 mm 3 mps 683 mmHg 93%
    23:00 +17°C° 2.4 mm 4 mps 683 mmHg 94%

    Day after tomorrow, 24 September, Monday

    Time Temperature Precipitation Wind Pressure Humidity
    00:00 +15°C° 2.4 mm 4 mps 684 mmHg 95%
    01:00 +13°C° 2.4 mm 4 mps 685 mmHg 96%
    02:00 +12°C° 0.6 mm 4 mps 685 mmHg 96%
    03:00 +11°C° 0.6 mm 4 mps 686 mmHg 96%
    04:00 +10°C° 0.6 mm 3 mps 687 mmHg 95%
    05:00 +9°C° 0.3 mm 3 mps 687 mmHg 95%
    06:00 +9°C° 0.3 mm 3 mps 688 mmHg 95%
    07:00 +8°C° 0.3 mm 3 mps 689 mmHg 94%
    08:00 +8°C° 0.2 mm 3 mps 689 mmHg 91%
    09:00 +9°C° 0.2 mm 3 mps 690 mmHg 88%
    10:00 +9°C° 0.2 mm 3 mps 690 mmHg 84%
    11:00 +9°C° 0.1 mm 3 mps 691 mmHg 80%
    12:00 +10°C° 0.1 mm 3 mps 691 mmHg 77%
    13:00 +10°C° 0.1 mm 3 mps 691 mmHg 73%
    14:00 +10°C° 0.1 mm 3 mps 691 mmHg 72%
    15:00 +10°C° 0.1 mm 3 mps 691 mmHg 71%
    16:00 +10°C° 0.1 mm 3 mps 691 mmHg 71%
    17:00 +9°C° 0.1 mm 3 mps 692 mmHg 75%
    18:00 +8°C° 0.1 mm 2 mps 692 mmHg 80%
    19:00 +7°C° 0.1 mm 2 mps 693 mmHg 85%
    20:00 +6°C° 0 mm 2 mps 693 mmHg 86%
    21:00 +5°C° 0 mm 2 mps 694 mmHg 88%
    22:00 +5°C° 0 mm 1 mps 694 mmHg 90%
    23:00 +5°C° 0 mm 1 mps 694 mmHg 90%

    25 September, Tuesday

    Time Temperature Precipitation Wind Pressure Humidity
    00:00 +4°C° 0 mm 1 mps 694 mmHg 90%
    01:00 +4°C° 0 mm 1 mps 695 mmHg 91%
    02:00 +4°C° 0 mm 1 mps 695 mmHg 89%
    03:00 +4°C° 0 mm 1 mps 694 mmHg 87%
    04:00 +4°C° 0 mm 1 mps 694 mmHg 85%
    05:00 +4°C° 0 mm 1 mps 695 mmHg 81%
    06:00 +5°C° 0 mm 1 mps 695 mmHg 77%
    07:00 +5°C° 0 mm 1 mps 695 mmHg 73%
    08:00 +6°C° 0 mm 2 mps 695 mmHg 64%
    09:00 +9°C° 0 mm 2 mps 696 mmHg 54%
    10:00 +12°C° 0 mm 2 mps 696 mmHg 45%
    11:00 +13°C° 0 mm 2 mps 696 mmHg 42%
    12:00 +15°C° 0 mm 2 mps 696 mmHg 40%
    13:00 +16°C° 0 mm 2 mps 695 mmHg 37%
    14:00 +16°C° 0 mm 2 mps 695 mmHg 39%
    15:00 +15°C° 0 mm 2 mps 695 mmHg 42%
    16:00 +15°C° 0 mm 2 mps 695 mmHg 44%
    17:00 +12°C° 0 mm 2 mps 694 mmHg 57%
    18:00 +10°C° 0 mm 1 mps 694 mmHg 70%
    19:00 +7°C° 0 mm 1 mps 694 mmHg 82%
    20:00 +7°C° 0 mm 1 mps 694 mmHg 81%
    21:00 +7°C° 0 mm 1 mps 695 mmHg 79%
    22:00 +7°C° 0 mm 1 mps 695 mmHg 77%
    23:00 +7°C° 0 mm 1 mps 695 mmHg 75%

    26 September, Wednesday

    Time Temperature Precipitation Wind Pressure Humidity
    00:00 +7°C° 0 mm 1 mps 695 mmHg 73%
    01:00 +7°C° 0 mm 1 mps 695 mmHg 71%
    02:00 +7°C° 0 mm 1 mps 694 mmHg 69%
    03:00 +7°C° 0 mm 1 mps 694 mmHg 66%
    04:00 +7°C° 0 mm 1 mps 694 mmHg 64%
    05:00 +8°C° 0 mm 1 mps 694 mmHg 59%
    06:00 +8°C° 0 mm 1 mps 694 mmHg 55%
    07:00 +9°C° 0 mm 1 mps 694 mmHg 51%
    08:00 +12°C° 0 mm 1 mps 695 mmHg 43%
    09:00 +15°C° 0 mm 1 mps 695 mmHg 36%
    10:00 +20°C° 0 mm 1 mps 696 mmHg 28%
    11:00 +21°C° 0 mm 1 mps 695 mmHg 28%
    12:00 +22°C° 0 mm 1 mps 695 mmHg 27%
    13:00 +22°C° 0 mm 1 mps 695 mmHg 27%
    14:00 +21°C° 0 mm 2 mps 695 mmHg 31%
    15:00 +20°C° 0 mm 2 mps 695 mmHg 36%
    16:00 +20°C° 0 mm 2 mps 694 mmHg 41%
    17:00 +18°C° 0 mm 1 mps 694 mmHg 52%
    18:00 +13°C° 0 mm 1 mps 693 mmHg 64%
    19:00 +10°C° 0 mm 1 mps 693 mmHg 76%
    20:00 +10°C° 0 mm 1 mps 693 mmHg 73%
    21:00 +10°C° 0 mm 1 mps 693 mmHg 70%
    22:00 +10°C° 0 mm 1 mps 693 mmHg 67%
    23:00 +10°C° 0 mm 1 mps 693 mmHg 63%

    27 September, Thursday

    Time Temperature Precipitation Wind Pressure Humidity
    00:00 +10°C° 0 mm 1 mps 693 mmHg 58%
    01:00 +10°C° 0 mm 1 mps 693 mmHg 54%
    02:00 +10°C° 0 mm 1 mps 693 mmHg 52%
    03:00 +10°C° 0 mm 1 mps 692 mmHg 49%
    04:00 +10°C° 0 mm 1 mps 692 mmHg 46%
    05:00 +10°C° 0 mm 1 mps 692 mmHg 45%
    06:00 +11°C° 0 mm 1 mps 692 mmHg 45%
    07:00 +11°C° 0 mm 1 mps 692 mmHg 44%
    08:00 +15°C° 0 mm 1 mps 693 mmHg 38%
    09:00 +19°C° 0 mm 1 mps 693 mmHg 32%
    10:00 +23°C° 0 mm 1 mps 693 mmHg 27%
    11:00 +23°C° 0 mm 1 mps 693 mmHg 26%
    12:00 +24°C° 0 mm 1 mps 693 mmHg 26%
    13:00 +25°C° 0 mm 1 mps 693 mmHg 26%
    14:00 +24°C° 0 mm 1 mps 692 mmHg 31%
    15:00 +24°C° 0 mm 2 mps 692 mmHg 36%
    16:00 +23°C° 0 mm 2 mps 692 mmHg 41%
    17:00 +20°C° 0 mm 1 mps 691 mmHg 53%
    18:00 +15°C° 0 mm 1 mps 691 mmHg 65%
    19:00 +12°C° 0 mm 1 mps 690 mmHg 77%
    20:00 +12°C° 0 mm 1 mps 690 mmHg 78%
    21:00 +11°C° 0 mm 1 mps 690 mmHg 78%
    22:00 +11°C° 0 mm 1 mps 690 mmHg 79%
    23:00 +10°C° 0 mm 1 mps 690 mmHg 78%
    Show more